Time,TemperatureF,DewpointF,PressureIn,WindDirection,WindDirectionDegrees,WindSpeedMPH,WindSpeedGustMPH,Humidity,HourlyPrecipIn,Conditions,Clouds,dailyrainin,SolarRadiationWatts/m^2,SoftwareType,DateUTC
2013-03-15 00:00:00,30.8,29.0,30.21,South,175,1.0,2.0,93,0.00,,,0.00,0,weatherlink.com 1.10,2013-03-15 04:00:00,
2013-03-15 00:15:00,30.8,29.0,30.20,SSE,162,0.0,4.0,93,0.00,,,0.00,0,weatherlink.com 1.10,2013-03-15 04:15:00,
2013-03-15 00:30:00,30.6,29.0,30.19,SSW,198,0.0,2.0,93,0.00,,,0.00,0,weatherlink.com 1.10,2013-03-15 04:30:00,
2013-03-15 00:45:00,30.1,28.0,30.18,SSW,206,1.0,3.0,93,0.00,,,0.00,0,weatherlink.com 1.10,2013-03-15 04:45:00,
2013-03-15 01:00:00,30.0,28.0,30.18,South,177,0.0,4.0,93,0.00,,,0.00,0,weatherlink.com 1.10,2013-03-15 05:00:00,
2013-03-15 01:15:00,29.8,28.0,30.16,South,180,1.0,2.0,93,0.00,,,0.00,0,weatherlink.com 1.10,2013-03-15 05:15:00,
2013-03-15 01:30:00,29.8,28.0,30.16,SSW,200,0.0,3.0,93,0.00,,,0.00,0,weatherlink.com 1.10,2013-03-15 05:30:00,
2013-03-15 01:45:00,29.7,28.0,30.16,South,180,0.0,4.0,93,0.00,,,0.00,0,weatherlink.com 1.10,2013-03-15 05:45:00,
2013-03-15 02:00:00,29.4,27.0,30.16,South,178,0.0,1.0,92,0.00,,,0.00,0,weatherlink.com 1.10,2013-03-15 06:00:00,
2013-03-15 02:15:00,29.1,27.0,30.15,South,178,0.0,0.0,92,0.00,,,0.00,0,weatherlink.com 1.10,2013-03-15 06:15:00,
2013-03-15 02:30:00,29.1,27.0,30.15,South,180,0.0,4.0,93,0.00,,,0.00,0,weatherlink.com 1.10,2013-03-15 06:30:00,
2013-03-15 02:45:00,29.1,27.0,30.14,South,180,1.0,1.0,93,0.00,,,0.00,0,weatherlink.com 1.10,2013-03-15 06:45:00,
2013-03-15 03:00:00,29.0,27.0,30.14,SSW,192,2.0,2.0,93,0.00,,,0.00,0,weatherlink.com 1.10,2013-03-15 07:00:00,
2013-03-15 03:15:00,29.1,27.0,30.13,South,188,0.0,1.0,93,0.00,,,0.00,0,weatherlink.com 1.10,2013-03-15 07:15:00,
2013-03-15 03:30:00,29.1,27.0,30.11,South,188,0.0,2.0,93,0.00,,,0.00,0,weatherlink.com 1.10,2013-03-15 07:30:00,
2013-03-15 03:45:00,29.2,28.0,30.09,South,187,5.0,5.0,93,0.00,,,0.00,0,weatherlink.com 1.10,2013-03-15 07:45:00,
2013-03-15 04:00:00,29.4,28.0,30.08,South,170,0.0,5.0,93,0.00,,,0.00,0,weatherlink.com 1.10,2013-03-15 08:00:00,
2013-03-15 04:15:00,29.6,28.0,30.07,South,171,1.0,5.0,93,0.00,,,0.00,0,weatherlink.com 1.10,2013-03-15 08:15:00,
2013-03-15 04:30:00,29.7,28.0,30.06,SSW,193,1.0,6.0,92,0.00,,,0.00,0,weatherlink.com 1.10,2013-03-15 08:30:00,
2013-03-15 04:45:00,29.7,28.0,30.06,SSW,192,0.0,5.0,92,0.00,,,0.00,0,weatherlink.com 1.10,2013-03-15 08:45:00,
2013-03-15 05:00:00,29.9,28.0,30.06,SSW,207,0.0,2.0,92,0.00,,,0.00,0,weatherlink.com 1.10,2013-03-15 09:00:00,
2013-03-15 05:15:00,29.7,28.0,30.07,SSW,207,0.0,1.0,92,0.00,,,0.00,0,weatherlink.com 1.10,2013-03-15 09:15:00,
2013-03-15 05:31:00,29.6,28.0,30.07,SSW,207,0.0,0.0,92,0.00,,,0.00,0,weatherlink.com 1.10,2013-03-15 09:31:00,
2013-03-15 05:46:00,29.0,27.0,30.07,SSW,207,0.0,0.0,91,0.00,,,0.00,0,weatherlink.com 1.10,2013-03-15 09:46:00,
2013-03-15 06:01:00,28.8,27.0,30.07,SSW,207,0.0,0.0,92,0.00,,,0.00,0,weatherlink.com 1.10,2013-03-15 10:01:00,
2013-03-15 06:19:00,28.9,27.0,30.07,SSW,207,0.0,0.0,92,0.00,,,0.00,0,weatherlink.com 1.10,2013-03-15 10:19:00,
2013-03-15 06:31:00,28.4,26.0,30.07,SSW,207,0.0,0.0,92,0.00,,,0.00,0,weatherlink.com 1.10,2013-03-15 10:31:00,
2013-03-15 06:46:00,27.9,26.0,30.07,SSW,207,0.0,0.0,92,0.00,,,0.00,0,weatherlink.com 1.10,2013-03-15 10:46:00,
2013-03-15 07:01:00,28.3,26.0,30.07,SSW,207,0.0,0.0,92,0.00,,,0.00,0,weatherlink.com 1.10,2013-03-15 11:01:00,
2013-03-15 08:01:00,28.9,27.0,30.03,SSW,207,0.0,2.0,94,0.00,,,0.00,0,weatherlink.com 1.10,2013-03-15 12:01:00,
2013-03-15 08:16:00,29.4,28.0,30.02,SSW,199,0.0,4.0,93,0.00,,,0.00,0,weatherlink.com 1.10,2013-03-15 12:16:00,
2013-03-15 08:31:00,29.8,28.0,30.02,SW,227,0.0,4.0,93,0.00,,,0.00,12,weatherlink.com 1.10,2013-03-15 12:31:00,
2013-03-15 08:46:00,30.5,29.0,30.03,SW,225,0.0,4.0,93,0.00,,,0.00,19,weatherlink.com 1.10,2013-03-15 12:46:00,
2013-03-15 09:01:00,30.7,29.0,30.03,SW,222,0.0,4.0,92,0.00,,,0.00,26,weatherlink.com 1.10,2013-03-15 13:01:00,
2013-03-15 09:31:00,31.6,29.0,30.03,SW,217,0.0,2.0,91,0.00,,,0.00,46,weatherlink.com 1.10,2013-03-15 13:31:00,
2013-03-15 09:46:00,32.5,30.0,30.02,South,186,2.0,3.0,91,0.00,,,0.00,84,weatherlink.com 1.10,2013-03-15 13:46:00,
2013-03-15 10:16:00,34.2,31.0,30.02,SSW,204,3.0,7.0,88,0.03,,,0.03,281,weatherlink.com 1.10,2013-03-15 14:16:00,
2013-03-15 10:31:00,34.8,32.0,30.02,SSW,211,2.0,5.0,88,0.03,,,0.03,320,weatherlink.com 1.10,2013-03-15 14:31:00,
2013-03-15 10:46:00,35.7,32.0,30.02,WSW,249,6.0,8.0,87,0.05,,,0.05,434,weatherlink.com 1.10,2013-03-15 14:46:00,
2013-03-15 11:01:00,37.1,33.0,30.02,WSW,244,7.0,7.0,86,0.05,,,0.06,554,weatherlink.com 1.10,2013-03-15 15:01:00,
2013-03-15 11:17:00,37.8,33.0,30.02,WSW,239,3.0,8.0,84,0.03,,,0.06,554,weatherlink.com 1.10,2013-03-15 15:17:00,
2013-03-15 11:32:00,38.7,34.0,30.01,SW,221,5.0,7.0,83,0.03,,,0.07,633,weatherlink.com 1.10,2013-03-15 15:32:00,
2013-03-15 11:47:00,40.1,34.0,30.01,WSW,243,4.0,8.0,80,0.02,,,0.07,591,weatherlink.com 1.10,2013-03-15 15:47:00,
2013-03-15 12:17:00,41.2,34.0,30.02,WNW,283,1.0,5.0,76,0.01,,,0.07,381,weatherlink.com 1.10,2013-03-15 16:17:00,
2013-03-15 12:32:00,42.5,36.0,30.01,WNW,286,0.0,2.0,77,0.00,,,0.07,563,weatherlink.com 1.10,2013-03-15 16:32:00,
2013-03-15 12:47:00,43.6,37.0,30.00,SW,215,5.0,6.0,77,0.00,,,0.07,543,weatherlink.com 1.10,2013-03-15 16:47:00,
2013-03-15 13:02:00,44.3,37.0,30.00,SSW,211,4.0,7.0,74,0.00,,,0.07,483,weatherlink.com 1.10,2013-03-15 17:02:00,
2013-03-15 13:17:00,45.4,36.0,30.00,SW,233,0.0,5.0,71,0.00,,,0.07,489,weatherlink.com 1.10,2013-03-15 17:17:00,
2013-03-15 13:32:00,46.2,38.0,30.00,SSW,208,4.0,6.0,72,0.00,,,0.07,439,weatherlink.com 1.10,2013-03-15 17:32:00,
2013-03-15 13:47:00,47.2,38.0,29.99,SW,214,1.0,6.0,71,0.00,,,0.07,468,weatherlink.com 1.10,2013-03-15 17:47:00,
2013-03-15 14:02:00,47.3,36.0,29.98,SW,217,2.0,6.0,66,0.00,,,0.07,329,weatherlink.com 1.10,2013-03-15 18:02:00,
2013-03-15 14:17:00,47.3,37.0,29.98,WSW,256,1.0,6.0,68,0.00,,,0.07,371,weatherlink.com 1.10,2013-03-15 18:17:00,
2013-03-15 14:32:00,48.2,37.0,29.97,WSW,248,4.0,5.0,66,0.00,,,0.07,352,weatherlink.com 1.10,2013-03-15 18:32:00,
2013-03-15 14:47:00,48.7,39.0,29.96,WSW,248,1.0,6.0,68,0.00,,,0.07,334,weatherlink.com 1.10,2013-03-15 18:47:00,
2013-03-15 15:02:00,49.6,39.0,29.95,WSW,242,3.0,5.0,68,0.00,,,0.07,441,weatherlink.com 1.10,2013-03-15 19:02:00,
2013-03-15 15:17:00,50.6,38.0,29.95,SSW,198,0.0,8.0,62,0.00,,,0.07,577,weatherlink.com 1.10,2013-03-15 19:17:00,
2013-03-15 15:47:00,51.4,38.0,29.93,WSW,243,2.0,7.0,61,0.00,,,0.07,339,weatherlink.com 1.10,2013-03-15 19:47:00,
2013-03-15 16:02:00,52.1,38.0,29.92,SW,215,4.0,6.0,60,0.00,,,0.07,425,weatherlink.com 1.10,2013-03-15 20:02:00,
2013-03-15 16:18:00,52.6,38.0,29.91,SW,221,2.0,8.0,59,0.00,,,0.07,390,weatherlink.com 1.10,2013-03-15 20:18:00,
2013-03-15 16:33:00,53.2,38.0,29.90,SSW,194,0.0,5.0,57,0.00,,,0.07,404,weatherlink.com 1.10,2013-03-15 20:33:00,
2013-03-15 16:48:00,53.5,38.0,29.89,SW,223,2.0,7.0,57,0.00,,,0.07,297,weatherlink.com 1.10,2013-03-15 20:48:00,
2013-03-15 17:03:00,53.7,39.0,29.90,SSW,197,2.0,6.0,59,0.00,,,0.07,229,weatherlink.com 1.10,2013-03-15 21:03:00,
2013-03-15 17:18:00,53.4,38.0,29.90,SW,217,2.0,6.0,57,0.00,,,0.07,185,weatherlink.com 1.10,2013-03-15 21:18:00,
2013-03-15 17:33:00,53.1,38.0,29.89,West,270,0.0,5.0,58,0.00,,,0.07,127,weatherlink.com 1.10,2013-03-15 21:33:00,
2013-03-15 17:48:00,53.0,38.0,29.89,West,270,0.0,2.0,58,0.00,,,0.07,91,weatherlink.com 1.10,2013-03-15 21:48:00,
2013-03-15 18:03:00,53.0,39.0,29.89,West,270,1.0,2.0,59,0.00,,,0.07,91,weatherlink.com 1.10,2013-03-15 22:03:00,
2013-03-15 18:18:00,53.0,39.0,29.88,SSW,207,0.0,4.0,59,0.00,,,0.07,76,weatherlink.com 1.10,2013-03-15 22:18:00,
2013-03-15 18:33:00,52.8,38.0,29.89,SW,223,2.0,6.0,58,0.00,,,0.07,62,weatherlink.com 1.10,2013-03-15 22:33:00,
2013-03-15 18:48:00,52.7,39.0,29.87,SW,218,0.0,5.0,60,0.00,,,0.07,44,weatherlink.com 1.10,2013-03-15 22:48:00,
2013-03-15 19:03:00,52.5,39.0,29.86,SW,218,0.0,1.0,60,0.00,,,0.07,30,weatherlink.com 1.10,2013-03-15 23:03:00,
2013-03-15 19:18:00,52.0,39.0,29.86,SW,219,0.0,5.0,62,0.00,,,0.07,14,weatherlink.com 1.10,2013-03-15 23:18:00,
2013-03-15 19:33:00,51.6,38.0,29.86,SW,219,0.0,1.0,61,0.00,,,0.07,7,weatherlink.com 1.10,2013-03-15 23:33:00,
2013-03-15 19:48:00,51.0,39.0,29.86,SW,219,0.0,2.0,64,0.00,,,0.07,0,weatherlink.com 1.10,2013-03-15 23:48:00,
2013-03-15 20:03:00,49.8,39.0,29.85,SW,221,6.0,7.0,67,0.00,,,0.07,0,weatherlink.com 1.10,2013-03-16 00:03:00,
2013-03-15 20:18:00,50.0,39.0,29.82,SSE,161,1.0,4.0,67,0.00,,,0.07,0,weatherlink.com 1.10,2013-03-16 00:18:00,
2013-03-15 20:33:00,50.3,39.0,29.83,SSE,167,0.0,4.0,65,0.00,,,0.07,0,weatherlink.com 1.10,2013-03-16 00:33:00,
2013-03-15 20:48:00,50.3,39.0,29.81,SSE,167,0.0,1.0,66,0.00,,,0.07,0,weatherlink.com 1.10,2013-03-16 00:48:00,
2013-03-15 21:03:00,50.3,39.0,29.79,ESE,112,2.0,5.0,66,0.00,,,0.07,0,weatherlink.com 1.10,2013-03-16 01:03:00,
2013-03-15 21:18:00,50.9,40.0,29.78,ESE,112,1.0,4.0,66,0.00,,,0.07,0,weatherlink.com 1.10,2013-03-16 01:18:00,
2013-03-15 21:33:00,51.0,40.0,29.77,SSE,147,3.0,4.0,65,0.00,,,0.07,0,weatherlink.com 1.10,2013-03-16 01:33:00,
2013-03-15 21:48:00,51.3,40.0,29.75,SE,127,1.0,6.0,65,0.00,,,0.07,0,weatherlink.com 1.10,2013-03-16 01:48:00,
2013-03-15 22:03:00,51.5,40.0,29.73,East,92,1.0,5.0,65,0.00,,,0.07,0,weatherlink.com 1.10,2013-03-16 02:03:00,
2013-03-15 22:18:00,52.1,40.0,29.74,East,85,0.0,6.0,64,0.00,,,0.07,0,weatherlink.com 1.10,2013-03-16 02:18:00,
2013-03-15 22:33:00,52.9,41.0,29.76,ENE,75,0.0,6.0,64,0.00,,,0.07,0,weatherlink.com 1.10,2013-03-16 02:33:00,
2013-03-15 22:48:00,53.7,42.0,29.75,NE,50,0.0,10.0,64,0.00,,,0.07,0,weatherlink.com 1.10,2013-03-16 02:48:00,
2013-03-15 23:03:00,52.9,41.0,29.72,SE,144,2.0,8.0,65,0.00,,,0.07,0,weatherlink.com 1.10,2013-03-16 03:03:00,
2013-03-15 23:18:00,52.9,41.0,29.72,ESE,119,1.0,4.0,65,0.00,,,0.07,0,weatherlink.com 1.10,2013-03-16 03:18:00,
2013-03-15 23:33:00,52.8,41.0,29.74,North,360,1.0,4.0,64,0.00,,,0.07,0,weatherlink.com 1.10,2013-03-16 03:33:00,
2013-03-15 23:48:00,51.8,41.0,29.73,North,360,0.0,2.0,66,0.00,,,0.07,0,weatherlink.com 1.10,2013-03-16 03:48:00,